Reflectivity
-20 -20 -20 -20 -20 -20 -20 -20 -20 -20 -20 -20 -20 -20 -20 -20 -20 -20 -20 -20 -20 -20 -20 -20 -20 -20 -20 -20 -20 -20 -20 -20 -20 -20 -20 -20 -20 -20 -20 -20 -20 -20 -20 -20
-20 -20 -20 -20 -20 -20 -20 -20 -20 -20 -20 -20 -20 -20 -20 -20 -20 -20 -20 -20 -20 -20 -20 -20 -20 -20 -20 -20 -20 -20 -20 -20 -20 -20 -20 -20 -20 -20 -20 -20 -20 -20 -20 -20
-20 -20 -20 -20 -20 -20 -20 -20 -20 -20 -20 -20 -20 -20 -20 -20 -20 -20 -20 -20 -20 -20 -20 -20 -20 -20 -20 -20 -20 -20 -20 -20 -20 -20 -20 -20 -20 -20 -20 -20 -20 -20 -20 -20
-20 -20 -20 -20 -20 -20 -20 -20 -20 -20 -20 -20 -20 -20 -20 -20 -20 -20 -20 -20 -20 -20 -20 -20 -20 -20 -20 -20 -20 -20 -20 -20 -20 -20 -20 -20 -20 -20 -20 -20 -20 -20 -20 -20
-20 -20 -20 -20 -20 -20 -20 -20 -20 -20 -20 -20 -20 -20 -20 -20 -20 -20 -20 -20 -20 -20 -20 -20 -20 -20 -20 -20 -20 -20 -20 -20 -20 -20 -20 -20 -20 -20 -20 -20 -20 -20 -20 -20
-20 -20 -20 -20 -20 -20 -20 -20 -20 -20 -20 -20 -20 -20 -20 -20 -20 -20 -20 -20 -20 -20 -20 -20 -20 -20 -20 -20 -20 -20 -20 -20 -20 -20 -20 -20 -20 -20 -20 -20 -20 -20 -20 -20
-20 -20 -20 -20 -20 -20 -20 -20 -20 -20 -20 -20 -20 -20 -20 -20 -20 -20 -20 -20 -20 -20 -20 -20 -20 -20 -20 -20 -20 -20 -20 -20 -20 -20 -20 -20 -20 -20 -20 -20 -20 -20 -20 -20
-20 -20 -20 -20 -20 -20 -20 -20 -20 -20 -20 -20 -20 -20 -20 -20 -20 -20 -20 -20 -20 -20 -20 -20 -20 -20 -20 -20 -20 -20 -20 -20 -20 -20 -20 -20 -20 -20 -20 -20 -20 -20 -20 -20
-20 -20 -20 -20 -20 -20 -20 -20 -20 -20 -20 -20 -20 -20 -20 -20 -20 -20 -20 -20 -20 -20 -20 -20 -20 -20 -20 -20 -20 -20 -20 -20 -20 -20 -20 -20 -20 -20 -20 -20 -20 -20 -20 -20
-20 -20 -20 -20 -20 -20 -20 -20 -20 -20 -20 -20 -20 -19 -20 -20 -20 -20 -20 -20 -20 -20 -20 -20 -20 -20 -20 -20 -20 -20 -20 -20 -20 -20 -20 -20 -20 -20 -20 -20 -20 -20 -20 -20
-20 -20 -20 -20 -20 -20 -20 -20 -20 -20 -20 -7 -18 -20 -20 -20 -20 -20 -20 -20 -20 -20 7 -20 -20 -20 -20 -20 -20 -20 -20 -20 -20 -20 -20 -20 -20 -20 -20 -20 -20 -20 -20 -20
-20 -20 -20 -20 -20 -20 -20 -20 -20 -20 -20 -20 -20 -20 -20 -20 -20 -20 -20 -20 -20 -20 -3 -20 -20 -20 -20 -20 -20 -20 -20 -20 -20 -20 -20 -20 -20 -20 -20 -20 -20 -20 -20 -20
-20 -20 -20 -20 -20 -20 -20 -20 -20 -20 -20 -20 -15 -14 -20 -20 -20 -20 -20 -20 -20 -20 -20 -20 -20 -20 -20 -20 -20 -20 -20 -20 -20 -20 -20 -20 -20 -20 -20 -20 -20 -20 -20 -20
-20 -20 -20 -20 -20 -20 -20 -20 -20 -20 -20 -20 -20 -20 -20 -20 -20 -20 -20 -20 -20 -20 -20 -20 -20 -20 -20 -20 -20 -20 -20 -20 -20 -20 -20 -20 -20 -20 -20 -20 -20 -20 -20 -20
-20 -20 -20 -20 -20 -20 -20 -20 -20 -20 -20 -20 -20 -20 -20 -20 -20 -20 -20 -20 -20 -20 -20 -20 -20 -20 -20 -20 -20 -20 -20 -20 -20 -20 -20 -20 -20 -20 -20 -20 -20 -20 -20 -20
-20 -20 -20 -20 -20 -20 -20 -20 -20 -20 -20 -20 -20 -20 -20 -20 -20 -20 -20 -20 -20 -20 -20 -20 -20 -20 -20 -20 -20 -20 -20 -20 -20 -20 -20 -20 -20 -20 -20 -20 -20 -20 -20 -20
-20 -20 -20 -20 -20 -20 -20 -20 -20 -20 -20 -20 -20 -13 -1 -20 -20 -20 -20 -20 -20 -20 -20 -20 -20 -20 -20 -20 -20 -20 -20 -20 -20 -20 -20 -17 -20 -11 -20 -20 -20 -20 -20 -18
-20 -20 -20 -20 -20 -20 -20 -20 -20 -20 -20 -20 -20 -19 -20 -20 -20 -20 -20 -20 -20 -20 -20 -20 -20 -20 -20 -20 -20 -20 -20 -20 -20 -9 2 4 8 -2 -4 -8 -19 -7 15 24
-20 -20 -20 -20 -20 -20 -20 -20 -20 -20 -20 -20 -20 -20 -20 -20 -20 -20 -20 -20 -20 -20 -20 -20 -20 -20 -20 -20 -20 -20 -20 -13 -19 5 2 3 1 -5 -9 15 21 23 22 37
-20 -20 -20 -20 -20 -20 -20 -20 -20 -20 -20 -20 -16 -20 -20 -20 -4 -20 -20 -20 -20 -20 -20 -20 -20 -20 -20 -20 -20 -18 1 6 6 -8 1 6 -1 10 19 14 33 34 34 31
-20 -20 -20 -20 -20 -20 -20 -20 -20 -19 -19 -20 -20 -20 -20 -20 -20 -20 -20 -20 -20 -20 -20 -20 -20 -20 -16 12 -1 5 8 8 4 0 -11 12 3 -12 -3 25 37 33 29 31
-20 -20 -20 -20 -20 -20 -20 -20 -20 1 -20 -20 -20 -20 -20 -20 -20 -20 -20 -20 -20 -20 -20 -20 -20 -20 -18 18 20 9 6 7 1 -4 -5 2 -20 -11 21 32 36 29 24 35
-20 -20 -20 -20 -20 -20 -20 -20 -20 -20 -20 -20 -20 -20 -20 -20 -20 -20 -20 -20 -20 -20 -20 -20 -2 -14 21 14 23 16 4 11 9 16 -7 -20 -18 16 29 35 32 32 31 35
-20 -20 -20 -20 -20 -20 -20 -20 -20 -20 -20 -20 -20 -20 -20 -20 -20 -20 -20 -20 -20 -20 -9 -11 -18 3 26 8 17 10 -0 -5 -17 -20 -20 -19 12 22 18 27 17 32 33 36
-20 -20 -20 -20 -20 -20 -20 -20 -20 -20 -20 -20 -20 -20 -20 -20 -20 -20 -20 -20 -20 -5 -8 -20 -0 19 32 13 15 8 -9 -8 -5 -20 -2 9 21 32 23 15 22 35 30 35
-20 -20 -20 -20 -20 -20 -20 -20 -20 -20 -20 -20 -20 -20 -20 -20 -20 -20 -20 -20 -20 5 -7 -7 3 16 32 23 17 17 -3 -20 -20 -1 -5 21 30 28 23 7 29 31 31 33
Wind_Speed
7 11 6 6 6 4 6 4 8 5 5 11 5 14 10 5 11 13 9 9 9 8 2 6 7 7 8 8 7 6 3 3 2 1 2 2 3 4 4 5 8 11 8 10
8 7 6 5 10 9 8 6 6 10 10 11 8 12 10 12 8 10 11 9 9 10 11 10 9 9 9 8 7 9 6 4 2 1 3 3 3 3 4 4 6 8 10 10
8 3 8 6 8 10 6 2 5 8 12 9 6 4 5 6 11 13 11 7 8 7 8 8 8 7 7 9 9 9 7 6 5 5 2 3 3 3 3 4 4 5 7 10
7 8 7 8 5 5 6 3 9 16 6 3 7 6 4 4 8 9 9 9 7 8 7 7 8 8 8 9 9 9 9 8 7 5 3 5 4 5 5 4 4 6 7 8
2 5 7 7 6 5 7 12 19 17 6 2 9 4 2 6 7 8 8 7 8 7 6 6 6 6 7 6 5 7 7 8 10 8 5 5 10 7 5 4 7 7 8 7
4 2 4 4 9 4 11 10 12 3 5 3 3 5 4 4 5 5 6 9 9 9 8 8 7 7 7 8 8 8 8 8 8 7 9 9 10 10 8 7 7 7 6 5
5 2 1 4 6 9 11 8 7 8 7 5 16 7 5 5 15 7 14 10 12 8 8 8 8 8 8 8 8 7 7 8 8 8 9 9 9 8 9 11 10 10 7 4
6 6 6 4 4 3 6 5 4 6 5 15 10 4 5 7 17 6 9 7 11 9 9 9 9 8 8 8 8 8 8 9 9 9 9 8 8 5 6 8 9 8 7 7
6 5 3 3 2 3 7 6 3 3 4 2 5 5 15 25 22 25 20 19 12 12 12 11 11 9 9 8 8 8 8 9 10 9 8 8 7 8 10 10 7 7 8 8
2 5 4 6 4 4 5 2 5 4 5 6 7 10 5 19 19 19 20 19 19 21 20 17 16 14 8 7 7 8 9 9 9 9 7 11 10 9 10 9 8 9 9 7
6 2 8 6 6 2 5 5 5 2 3 4 7 4 14 15 16 19 19 16 15 17 16 19 19 17 8 8 8 10 12 9 8 8 8 12 12 12 11 9 10 8 9 12
4 1 5 2 3 7 7 4 4 5 7 5 5 12 18 14 14 16 16 17 19 19 17 20 15 13 14 12 10 10 12 8 11 9 13 14 14 12 11 12 12 10 12 12
3 2 5 8 5 7 5 4 5 5 1 6 7 8 14 10 17 17 18 21 17 18 21 17 16 16 17 16 14 13 9 13 12 14 14 15 14 12 13 14 13 12 13 11
4 3 5 6 8 5 6 7 5 3 2 6 5 17 16 17 20 21 21 18 17 17 17 18 18 19 18 15 15 13 16 15 15 14 16 14 15 14 14 14 13 12 10 13
4 2 3 8 11 11 6 4 7 4 5 3 13 15 15 15 20 20 19 20 20 17 20 19 21 20 19 20 16 18 17 17 18 17 15 16 15 15 10 11 11 14 15 16
3 2 3 4 9 9 4 4 6 6 10 9 16 20 8 17 16 18 20 23 16 20 20 24 23 23 22 19 20 19 18 19 17 18 17 17 16 14 17 14 15 15 17 17
3 1 3 5 11 11 4 8 6 7 12 12 9 13 20 22 20 20 23 20 16 22 24 24 23 22 21 19 20 18 20 19 17 17 17 16 18 17 15 15 15 16 17 18
2 3 3 3 8 5 4 8 8 13 17 6 16 21 20 21 21 19 16 15 22 24 24 23 21 20 19 19 19 20 19 16 17 19 18 16 15 15 15 15 14 16 15 17
4 4 3 3 1 7 8 11 10 13 16 11 22 23 23 22 20 15 13 19 22 23 22 20 18 20 20 20 20 22 18 18 19 17 16 15 15 15 14 14 14 14 15 16
4 6 6 4 2 2 4 12 15 9 5 17 19 21 22 23 15 18 26 25 24 24 21 20 21 21 19 21 21 19 22 19 19 16 17 14 14 13 13 14 13 12 15 13
3 4 3 2 3 6 7 12 12 9 10 20 18 19 21 15 12 23 23 22 22 21 23 22 20 20 21 21 22 21 18 17 16 16 15 13 12 12 12 13 10 10 12 7
3 4 3 2 4 4 10 8 8 7 14 17 18 19 19 20 21 21 22 22 22 24 24 23 21 21 22 22 18 19 19 16 15 14 12 12 12 10 9 10 11 9 9 10
2 7 5 8 6 6 2 9 5 12 15 16 18 21 20 21 21 21 21 20 21 23 21 21 22 25 22 20 19 18 17 16 14 12 11 10 11 10 8 8 8 8 9 10
3 2 2 4 4 7 15 6 10 14 15 18 19 20 18 18 19 18 18 19 19 20 21 22 25 23 23 21 20 17 16 15 12 9 9 8 9 11 9 4 6 8 7 8
5 3 3 4 5 11 2 9 14 17 18 18 15 18 17 14 15 17 18 20 19 20 22 21 22 22 23 21 20 18 15 13 9 5 6 7 7 8 7 10 9 9 9 9
0 0 2 5 6 5 9 15 16 16 18 17 17 17 12 12 17 18 18 17 18 21 22 21 23 22 22 19 19 16 11 8 7 5 5 5 5 7 8 11 13 27 23 22
Wind_Direction
28 60 39 351 28 3 286 269 295 275 351 2 304 300 311 334 78 75 61 55 48 37 352 39 20 11 14 3 343 336 320 303 47 35 344 351 310 296 310 314 327 332 332 332
35 55 329 20 37 11 350 310 318 296 2 322 326 335 58 59 77 79 74 52 44 26 17 360 1 11 2 340 332 320 304 325 305 210 233 209 247 275 267 292 305 310 319 319
97 318 325 81 38 9 339 15 307 275 340 306 354 20 42 28 62 51 38 45 41 37 14 355 4 353 339 340 328 333 290 281 280 246 264 290 298 297 287 281 275 274 295 302
66 356 16 50 49 33 307 330 314 302 356 301 24 284 63 59 59 45 26 26 13 3 358 359 1 347 334 321 314 314 297 290 284 269 268 249 265 260 238 252 255 279 273 280
350 26 33 38 322 338 276 317 283 288 230 7 343 58 1 32 25 13 6 6 349 336 347 339 323 300 280 279 296 305 310 324 320 288 293 270 283 263 255 255 264 264 270 261
74 66 52 344 303 38 338 305 312 39 111 94 220 180 316 42 3 351 348 339 333 333 332 319 301 310 312 314 322 321 325 322 326 314 295 287 270 274 279 272 270 270 258 259
343 34 88 8 5 357 2 2 346 2 5 246 4 5 203 96 23 22 355 355 349 343 335 321 318 308 304 312 316 322 328 314 307 306 297 290 286 286 278 286 292 284 271 253
33 337 20 350 88 307 333 52 90 306 322 299 316 179 205 69 15 14 341 359 349 327 326 315 302 300 302 302 315 320 315 307 300 294 296 293 287 277 275 280 282 278 275 270
21 292 355 77 107 54 336 34 201 247 276 331 261 299 322 5 15 8 3 350 339 328 324 317 308 304 299 316 308 299 302 300 301 297 293 290 282 282 287 278 268 272 277 282
3 296 304 317 75 33 97 221 8 5 319 303 288 315 274 5 354 354 356 350 343 336 341 332 322 313 310 315 302 306 303 289 288 291 293 306 287 278 284 283 271 277 278 266
12 66 302 8 18 359 14 20 30 306 283 281 301 293 340 356 354 355 337 329 327 317 315 334 320 327 311 318 314 310 306 298 295 292 292 298 292 288 284 273 283 267 272 284
353 73 306 349 308 108 91 72 99 122 290 237 245 295 7 9 348 326 318 318 314 326 332 321 313 328 326 319 304 307 302 296 299 283 305 299 295 289 286 289 283 269 279 279
338 25 342 343 346 4 51 63 314 271 300 266 302 296 341 341 333 326 322 322 327 332 327 324 322 328 324 316 313 307 289 297 292 297 298 297 293 292 286 287 277 276 280 292
47 36 140 200 241 262 341 347 10 54 64 285 271 305 332 339 326 320 317 320 324 323 320 316 327 321 318 312 309 303 304 302 303 301 299 293 298 295 289 288 291 298 310 303
84 117 11 294 296 302 323 29 36 58 297 128 309 302 325 321 315 311 314 319 322 321 322 318 325 320 319 315 314 313 308 308 305 304 302 304 295 302 306 310 307 303 301 300
18 251 7 284 324 345 342 29 13 351 338 304 312 311 314 311 318 321 325 320 319 322 315 320 319 319 317 312 318 312 311 309 309 310 304 304 308 307 309 308 308 308 303 300
73 356 40 272 333 334 45 14 22 348 315 315 331 322 326 322 325 327 321 317 317 318 318 318 315 313 313 312 313 310 311 311 312 313 315 313 309 304 308 311 312 307 304 303
116 24 72 276 337 42 173 19 345 345 323 28 350 335 319 319 316 315 310 319 318 318 315 312 311 310 312 313 311 307 312 318 319 309 311 310 313 308 312 312 308 308 307 304
78 89 348 92 230 285 1 356 350 335 315 19 343 328 324 324 318 311 318 319 315 313 310 308 312 314 315 313 314 315 324 310 313 308 311 314 318 315 315 314 310 313 309 309
71 80 108 32 85 275 229 341 347 330 286 359 335 322 321 326 329 319 321 318 317 315 313 319 319 317 316 317 321 325 314 314 312 323 312 316 311 311 314 307 317 316 306 307
19 13 150 273 252 293 351 3 344 2 306 317 315 313 318 314 295 298 306 310 312 314 321 321 320 317 318 326 317 313 311 313 315 310 312 311 312 312 307 312 309 302 300 336
136 112 265 44 29 329 359 353 1 293 315 314 312 309 309 307 309 311 313 316 321 325 326 327 322 326 322 324 321 317 313 313 309 308 310 312 312 309 314 312 319 342 37 60
12 173 198 164 225 274 6 309 270 311 312 311 308 309 308 308 309 317 318 323 326 326 326 328 332 324 324 327 324 317 315 312 308 308 309 314 311 311 313 319 336 59 47 64
321 148 196 37 309 304 319 322 321 319 314 309 310 309 309 313 318 324 327 328 328 328 331 334 330 329 325 328 326 319 315 313 310 314 316 319 319 331 341 5 54 69 63 73
214 35 317 278 304 308 253 327 318 319 317 314 316 318 321 331 332 333 330 330 328 333 332 337 330 328 328 328 326 321 319 322 339 341 323 331 335 344 38 60 56 60 54 79
81 56 70 257 276 250 295 321 316 321 320 317 322 324 334 335 336 333 331 328 334 334 337 334 331 329 330 328 326 327 329 339 348 352 358 353 355 48 61 74 66 68 75 81